This is the latest recevied weather packets stored in our database for station/object N6OL. If no packets are shown the sender has not sent any weather packets the latest 10 day(s).
| Time | Temp. | Humidity | Pressure | Rain* | Wind** | Luminosity | Snow |
|---|---|---|---|---|---|---|---|
| 1777651203 | 13.89° C | 82% | 1015.5 hPa | 0 mm | - | 163 W/m² | - |
| 1777649724 | 13.33° C | 82% | 1015.3 hPa | 0 mm | - | 146 W/m² | - |
| 1777647303 | 13.33° C | 84% | 1015 hPa | 0 mm | - | 179 W/m² | - |
| 1777646703 | 12.78° C | 84% | 1014.9 hPa | 0 mm | - | 97 W/m² | - |
| 1777645503 | 12.78° C | 86% | 1014.7 hPa | 0 mm | - | 116 W/m² | - |
| 1777644603 | 12.22° C | 85% | 1014.6 hPa | 0 mm | - | 60 W/m² | - |
| 1777643103 | 12.22° C | 85% | 1014.4 hPa | 0 mm | - | 23 W/m² | - |
| 1777642203 | 12.22° C | 85% | 1014.3 hPa | 0 mm | - | 11 W/m² | - |
| 1777641924 | 12.22° C | 85% | 1014.3 hPa | 0 mm | - | 7 W/m² | - |
| 1777638603 | 12.22° C | 86% | 1014.1 hPa | 0 mm | - | 0 W/m² | - |
| 1777638303 | 12.22° C | 86% | 1014.1 hPa | 0 mm | - | 0 W/m² | - |
| 1777638024 | 12.22° C | 87% | 1014 hPa | 0 mm | - | 0 W/m² | - |
| 1777636503 | 12.22° C | 87% | 1014 hPa | 0 mm | - | 0 W/m² | - |
| 1777635003 | 12.22° C | 87% | 1014.1 hPa | 0 mm | - | 0 W/m² | - |
| 1777634703 | 12.22° C | 87% | 1014.1 hPa | 0 mm | - | 0 W/m² | - |
| 1777633503 | 12.22° C | 87% | 1014.2 hPa | 0 mm | - | 0 W/m² | - |
| 1777633203 | 12.22° C | 87% | 1014.1 hPa | 0 mm | - | 0 W/m² | - |
| 1777632903 | 12.22° C | 87% | 1014.1 hPa | 0 mm | - | 0 W/m² | - |
| 1777632603 | 12.22° C | 87% | 1014 hPa | 0 mm | - | 0 W/m² | - |
| 1777630203 | 12.22° C | 88% | 1014 hPa | 0 mm | - | 0 W/m² | - |
| 1777627803 | 11.67° C | 88% | 1014.1 hPa | 0 mm | - | 0 W/m² | - |
| 1777626303 | 11.67° C | 88% | 1014.3 hPa | 0 mm | - | 0 W/m² | - |
| 1777625703 | 11.67° C | 88% | 1014.4 hPa | 0 mm | - | 0 W/m² | - |
| 1777625103 | 11.67° C | 88% | 1014.5 hPa | 0 mm | - | 0 W/m² | - |
| 1777623003 | 11.67° C | 88% | 1014.8 hPa | 0 mm | - | 0 W/m² | - |
* Rain latest hour (hover to see other rain measurements)
** Current wind speed in m/s (hover to see current wind gust speed)